User: anonymous   Login
Location: Elstree
(51.6403°N, 0.2969°W)
Time: 15:47:00
(UTC+00:00)
Language:

Cosmos 1666 Rocket - Orbit

View from above orbital plane
View from above orbital plane
View from above satellite
View from above satellite

Ground track
Ground track

The orbit data is extracted from the following two-line orbital elements,

1 15890U 85058B   21206.68906192  .00000105  00000-0  98036-5 0  9998
2 15890  82.5278 297.2818 0019789 319.8156 203.6830 14.83483001926046
Epoch (UTC): 25 July 2021 16:32:14
Eccentricity: 0.0019789
inclination: 82.5278°
perigee height: 604 km
apogee height: 632 km
right ascension of ascending node: 297.2818°
argument of perigee: 319.8156°
revolutions per day: 14.83483001
mean anomaly at epoch: 203.6830°
orbit number at epoch: 92604

The dashed part of the orbit path shows where the satellite is in the earth's shadow,  

DLR